Вернуться в каталог

NIMBUS 2 DEB

АктивенLEO
NORAD 26670·DEBRIS·🇺🇸 United States

Запущен May 15, 1966 с Vandenberg Space Force Base

Loading…

Ближайшие Пролёты (ближайшие 24 часа)

TLE

СвежийSource: Space-Track

Эпоха: Sep 14, 2026, 01:27 UTC

1 26670U 66040K   26257.06101507  .00004374  00000-0  30024-2 0  9998
2 26670 100.2854 104.7600 0027659 200.0963 312.3538 13.99933632963034

Отслеживайте NIMBUS 2 DEB в реальном времени с AllMySat

Download on the App Store